GW6222 Weather Reports


Display with metric or nautical units.
time (UTC)temp
F
wind
direction
speed
MPH
gust
MPH
rain 1hr
in
rain 24hr
in
rain mn
in
humidity
%
barometer
mb
20260507131550 50 0 0.0 1.0 0.00 0.00 0.00 60 1012.6
20260507130053 50 227 0.0 1.0 0.00 0.00 0.00 59 1012.6
20260507124552 49 319 0.0 1.0 0.00 0.00 0.00 58 1012.5
20260507123055 49 223 0.0 1.0 0.00 0.00 0.00 57 1012.5
20260507121552 48 0 0.0 1.0 0.00 0.00 0.00 59 1012.5
20260507120050 48 0 0.0 1.0 0.00 0.00 0.00 61 1012.2
20260507114552 46 0 0.0 0.0 0.00 0.00 0.00 63 1012.1
20260507113053 43 0 0.0 0.0 0.00 0.00 0.00 70 1012.0
20260507111559 38 0 0.0 0.0 0.00 0.00 0.00 78 1011.9
20260507110049 33 0 0.0 0.0 0.00 0.00 0.00 84 1011.6
20260507104551 33 0 0.0 0.0 0.00 0.00 0.00 80 1011.6
20260507103049 33 0 0.0 0.0 0.00 0.00 0.00 82 1011.5
20260507101601 34 0 0.0 0.0 0.00 0.00 0.00 79 1011.5
20260507100048 35 0 0.0 0.0 0.00 0.00 0.00 77 1011.5
20260507094550 36 0 0.0 0.0 0.00 0.00 0.00 77 1011.5
20260507093054 36 0 0.0 0.0 0.00 0.00 0.00 74 1011.4
20260507091545 37 0 0.0 1.0 0.00 0.00 0.00 75 1011.6
20260507090044 37 0 0.0 0.0 0.00 0.00 0.00 75 1011.5
20260507084548 37 0 0.0 1.0 0.00 0.00 0.00 77 1011.7
20260507083047 38 0 0.0 0.0 0.00 0.00 0.00 73 1011.7
20260507081551 38 0 0.0 0.0 0.00 0.00 0.00 71 1011.8
20260507080052 38 0 0.0 0.0 0.00 0.00 0.00 70 1011.9
20260507074557 38 0 0.0 0.0 0.00 0.00 0.00 71 1011.9
20260507073049 39 0 0.0 0.0 0.00 0.00 0.00 69 1011.9
20260507071553 39 0 0.0 0.0 0.00 0.00 0.00 70 1012.0
20260507070051 39 0 0.0 0.0 0.00 0.00 0.00 69 1012.1
20260507064606 40 0 0.0 0.0 0.00 0.00 0.00 69 1012.3
20260507063054 40 0 0.0 0.0 0.00 0.00 0.00 68 1012.2
20260507061553 41 0 0.0 0.0 0.00 0.00 0.00 68 1012.2
20260507060050 42 0 0.0 0.0 0.00 0.00 0.00 69 1012.3
20260507054557 42 0 0.0 1.0 0.00 0.00 0.00 67 1012.4
20260507053058 42 0 0.0 1.0 0.00 0.00 0.00 70 1012.4
20260507051558 42 0 0.0 1.0 0.00 0.00 0.00 66 1012.4
20260507044555 42 0 0.0 0.0 0.00 0.00 0.00 61 1012.5
20260507043047 41 0 0.0 0.0 0.00 0.00 0.00 63 1012.6
20260507041600 42 0 0.0 0.0 0.00 0.00 0.00 64 1012.6
20260507040056 42 0 0.0 0.0 0.00 0.00 0.00 64 1012.7
20260507034557 42 0 0.0 1.0 0.00 0.00 0.00 65 1012.5
20260507033053 42 0 0.0 0.0 0.00 0.00 0.00 65 1012.8
20260507031558 43 0 0.0 0.0 0.00 0.00 0.00 60 1012.7
20260507030058 43 0 0.0 0.0 0.00 0.00 0.00 59 1012.7
20260507024553 43 0 0.0 0.0 0.00 0.00 0.00 58 1012.7
20260507023127 44 0 0.0 0.0 0.00 0.00 0.00 60 1012.6
20260507021553 44 0 0.0 0.0 0.00 0.00 0.00 59 1012.5
20260507020051 44 0 0.0 0.0 0.00 0.00 0.00 58 1012.4
20260507014604 45 0 0.0 0.0 0.00 0.00 0.00 58 1012.4
20260507013107 45 0 0.0 1.0 0.00 0.00 0.00 57 1012.3
20260507011551 46 0 0.0 0.0 0.00 0.00 0.00 58 1012.2
20260507010052 46 0 0.0 0.0 0.00 0.00 0.00 56 1012.2
20260507004554 46 0 0.0 1.0 0.00 0.00 0.00 56 1012.0
20260507003052 47 0 0.0 0.0 0.00 0.00 0.00 56 1011.8
20260507001607 48 0 0.0 0.0 0.00 0.00 0.00 53 1011.5
20260507000052 49 0 0.0 0.0 0.00 0.00 0.00 50 1011.5
20260506234558 50 0 0.0 1.0 0.00 0.00 0.00 48 1011.4
20260506233102 51 296 0.0 1.0 0.00 0.00 0.00 47 1011.4
20260506231549 52 265 0.0 1.0 0.00 0.00 0.00 44 1011.3
20260506230049 53 0 0.0 1.0 0.00 0.00 0.00 45 1011.2
20260506224547 53 0 0.0 1.0 0.00 0.00 0.00 43 1011.3
20260506223105 53 232 0.0 2.0 0.00 0.00 0.00 45 1011.3
20260506221549 54 0 0.0 2.0 0.00 0.00 0.00 42 1011.2
20260506220049 53 0 0.0 1.0 0.00 0.00 0.00 44 1011.2
20260506214604 53 0 0.0 1.0 0.00 0.00 0.00 42 1011.2
20260506213048 53 42 0.0 1.0 0.00 0.00 0.00 42 1011.1
20260506211548 54 0 0.0 1.0 0.00 0.00 0.00 41 1011.2
20260506210052 54 39 0.0 2.0 0.00 0.00 0.00 40 1011.2
20260506204555 53 348 0.0 1.0 0.00 0.00 0.00 41 1011.3
20260506203100 54 0 0.0 1.0 0.00 0.00 0.00 43 1011.3
20260506201552 54 0 0.0 1.0 0.00 0.00 0.00 40 1011.4
20260506200125 54 38 0.0 1.0 0.00 0.00 0.00 39 1011.5
20260506194558 54 262 0.0 2.0 0.00 0.00 0.00 40 1011.6
20260506193051 54 59 0.0 3.0 0.00 0.00 0.00 42 1011.7
20260506191549 54 31 0.0 1.0 0.00 0.00 0.00 41 1011.6
20260506190049 54 0 0.0 2.0 0.00 0.00 0.00 40 1011.6
20260506184553 55 254 0.0 3.0 0.00 0.00 0.00 41 1011.6
20260506183053 54 235 0.0 2.0 0.00 0.00 0.00 42 1011.5
20260506181548 54 0 0.0 1.0 0.00 0.00 0.00 40 1011.6
20260506174553 53 15 0.0 4.0 0.00 0.00 0.00 42 1011.8
20260506173106 53 336 0.0 1.0 0.00 0.00 0.00 42 1011.9
20260506171600 53 0 0.0 1.0 0.00 0.00 0.00 42 1012.0
20260506170049 53 22 0.0 3.0 0.00 0.00 0.00 43 1012.1
20260506164551 55 232 0.0 2.0 0.00 0.00 0.00 41 1012.0
20260506163058 54 313 0.0 2.0 0.00 0.00 0.00 42 1011.9
20260506161555 54 295 0.0 2.0 0.00 0.00 0.00 40 1012.3
20260506160107 53 0 0.0 2.0 0.00 0.00 0.00 41 1012.1
20260506154549 53 34 0.0 2.0 0.00 0.00 0.00 43 1012.1
20260506153052 53 256 0.0 3.0 0.00 0.00 0.00 45 1012.3
20260506151554 53 0 1.0 3.0 0.00 0.00 0.00 45 1012.1
20260506150055 51 279 0.0 2.0 0.00 0.00 0.00 46 1012.1
20260506144553 47 92 0.0 2.0 0.00 0.00 0.00 54 1012.0
20260506143057 47 46 0.0 1.0 0.00 0.00 0.00 52 1012.0
20260506141552 46 0 0.0 2.0 0.00 0.00 0.00 59 1012.0
20260506140111 45 103 0.0 3.0 0.00 0.00 0.00 64 1011.8
20260506134616 44 51 0.0 2.0 0.00 0.00 0.00 67 1011.6
20260506133051 43 0 1.0 3.0 0.00 0.00 0.00 68 1011.7